Simultaneous Nadir Overpasses (SNOs) Predictions

Prediction of SNOs between METOP-B and TERRA Satellite Orbit:

Table of predicted SNOs for the next 14.0 days since TLE Epoch: 2/8/2020
Index Date (METOP-B) Time (METOP-B) Lat,Lon (METOP-B) SZA (METOP-B ) Date (TERRA) Time (TERRA) Lat,Lon (TERRA) SZA (TERRA ) Distance(km) Time Diff (sec)
1 02/10/2020 16:03:25 81.29, -14.19 97.91 02/10/2020 16:03:32 81.28, -14.09 97.92 1.66 7
2 02/10/2020 16:54:04 -81.30, 154.02 82.01 02/10/2020 16:52:58 -81.30, 153.85 82.05 2.86 66
3 02/13/2020 11:37:46 81.30, 52.80 97.05 02/13/2020 11:37:49 81.30, 52.61 97.04 3.22 3
4 02/13/2020 12:28:27 -81.30,-139.75 82.95 02/13/2020 12:27:16 -81.30,-139.79 82.99 0.70 71
5 02/16/2020 06:21:31 -81.29, -48.82 83.97 02/16/2020 06:22:42 -81.29, -48.81 83.94 0.33 71
6 02/16/2020 07:12:10 81.29, 118.99 96.08 02/16/2020 07:12:08 81.29, 118.90 96.07 1.62 2
7 02/19/2020 01:55:55 -81.28, 17.38 84.97 02/19/2020 01:57:01 -81.28, 17.47 84.93 1.65 66
8 02/19/2020 02:46:34 81.29,-174.83 95.08 02/19/2020 02:46:27 81.28,-174.86 95.07 0.98 7
9 02/21/2020 21:30:17 -81.29, 83.95 85.94 02/21/2020 21:31:18 -81.29, 84.09 85.90 2.51 61




NCC Satellite Simultaneous Nadir Overpasses (SNOs) Prediction Service
